EHI
0 0 0 0 0 0 0 0 0 0 0 0 0 0 0 0 0 0 0 0 0 0 0 0 0 0 0 0 0 0 0 0 0 0 0 0 0 0
0 0 0 0 0 0 0 0 0 0 0 0 0 0 0 0 0 0 0 0 0 0 0 0 0 0 0 0 0 0 0 0 0 0 0 0 0 0
0 0 0 0 0 0 0 0 0 0 0 0 0 0 0 0 0 0 0 0 0 0 0 0 0 0 0 0 0 0 0 0 0 0 0 0 0 0
0 0 0 0 0 0 0 0 0 0 0 0 0 0 0 0 0 0 0 0 0 0 0 0 0 0 0 0 0 0 0 0 0 0 0 0 0 0
0 0 0 0 0 0 0 0 0 0 0 0 0 0 0 0 0 0 0 0 0 0 0 0 0 0 0 0 0 0 0 0 0 0 0 0 0 0
0 0 0 0 0 0 0 0 0 0 0 0 0 0 0 0 0 0 0 0 0 0 0 0 0 0 0 0 0 0 0 0 0 0 0 0 0 0
0 0 0 0 0 0 0 0 0 0 0 0 0 0 0 0 0 0 0 0 0 0 0 0 0 0 0 0 0 0 0 0 0 0 0 0 0 0
0 0 0 0 0 0 0 0 0 0 0 0 0 0 0 0 0 0 0 0 0 0 0 0 0 0 0 0 0 0 0 0 0 0 0 0 0 0
0 0 0 0 0 0 0 0 0 0 0 0 0 0 0 0 0 0 0 0 0 0 0 0 0 0 0 0 0 0 0 0 0 0 0 0 0 0
0 0 0 0 0 0 0 0 0 0 0 0 0 0 0 0 0 0 0 0 0 0 0 0 0 0 0 0 0 0 0 0 0 0 0 0 0 0
0 0 0 0 0 0 0 0 0 0 0 0 0 0 0 0 0 0 0 0 0 0 0 0 0 0 0 0 0 0 0 0 0 0 0 0 0 0
0 0 0 0 0 0 0 0 0 0 0 0 0 0 0 0 0 0 0 0 0 0 0 0 0 0 0 0 0 0 0 0 0 0 0 0 0 0
0 0 0 0 0 0 0 0 0 0 0 0 0 0 0 0 0 0 0 0 0 0 0 0 0 0 0 0 0 0 0 0 0 0 0 0 0 0
0 0 0 0 0 0 0 0 0 0 0 0 0 0 0 0 0 0 0 0 0 0 0 0 0 0 0 0 0 0 0 0 0 0 0 0 0 0
0 0 0 0 0 0 0 0 0 0 0 0 0 0 0 0 0 0 0 0 0 0 0 0 0 0 0 0 0 0 0 0 0 0 0 0 0 0
0 0 0 0 0 0 0 0 0 0 0 0 0 0 0 0 0 0 0 0 0 0 0 0 0 0 0 0 0 0 0 0 0 0 0 0 0 0
0 0 0 0 0 0 0 0 0 0 0 0 0 0 0 0 0 0 0 0 0 0 0 0 0 0 0 0 0 0 0 0 0 0 0 0 0 0
0 0 0 0 0 0 0 0 0 0 0 0 0 0 0 0 0 0 0 0 0 0 0 0 0 0 0 0 0 0 0 0 0 0 0 0 0 0
0 0 0 0 0 0 0 0 0 0 0 0 0 0 0 0 0 0 0 0 0 0 0 0 0 0 0 0 0 0 0 0 0 0 0 0 0 0
0 0 0 0 0 0 0 0 0 0 0 0 0 0 0 0 0 0 0 0 0 0 0 0 0 0 0 0 0 0 0 0 0 0 0 0 0 0
0 0 0 0 0 0 0 0 0 0 0 0 0 0 0 0 0 0 0 0 0 0 0 0 0 0 0 0 0 0 0 0 0 0 0 0 0 0
0 0 0 0 0 0 0 0 0 0 0 0 0 0 0 0 0 0 0 0 0 0 0 0 0 0 0 0 0 0 0 0 0 0 0 0 0 0
0 0 0 0 0 0 0 0 0 0 0 0 0 0 0 0 0 0 0 0 0 0 0 0 0 0 0 0 0 0 0 0 0 0 0 0 0 0
Wind_Speed
2 2 2 2 2 2 2 2 3 4 4 3 2 2 1 1 3 3 3 6 8 8 8 7 6 6 6 6 6 7 7 7 8 9 9 9 9 9
2 2 3 2 2 2 3 3 3 4 5 3 3 2 3 3 5 4 4 8 8 9 9 7 7 7 6 7 7 6 7 7 7 8 8 8 8 8
3 3 4 3 3 3 3 3 3 3 6 5 3 3 3 4 4 4 4 4 5 9 9 9 8 8 7 7 7 7 7 7 7 8 8 8 8 8
4 4 4 3 4 3 3 4 4 4 5 6 5 3 4 4 4 4 5 5 4 8 10 9 8 8 8 7 8 8 8 8 8 8 8 9 9 9
4 4 4 4 5 4 4 4 4 4 4 5 5 4 3 3 3 4 5 5 5 7 9 9 8 9 8 8 8 8 8 8 8 7 8 9 9 10
4 4 5 5 5 5 5 5 5 5 5 5 5 4 4 3 3 4 4 4 5 5 6 7 8 9 9 9 8 8 8 8 8 8 9 9 9 10
5 5 6 7 8 7 6 5 5 5 5 5 5 4 4 3 4 3 5 4 5 4 4 5 5 4 5 8 8 9 9 9 9 10 10 10 10 10
6 6 6 7 9 11 12 11 9 8 7 6 6 7 7 5 4 4 4 5 6 3 4 6 4 5 4 4 8 10 10 10 10 10 10 11 11 11
6 6 6 7 8 7 9 11 11 12 12 9 9 9 8 6 6 6 6 6 7 4 3 6 4 6 5 6 9 10 10 10 10 10 10 10 11 11
7 7 7 7 8 8 7 8 8 9 10 9 9 9 8 7 7 8 8 7 7 5 4 6 5 6 5 5 8 9 10 10 10 10 10 10 10 11
8 8 8 8 11 12 9 9 9 9 10 12 13 13 13 13 11 6 6 6 7 5 4 5 4 4 4 5 6 8 9 10 10 10 10 10 11 11
7 7 10 11 12 12 9 8 9 9 7 8 10 11 10 11 12 9 7 7 6 6 4 4 4 2 4 4 4 4 4 8 10 11 11 11 11 7
6 6 6 11 13 13 12 8 10 9 7 7 7 7 7 6 7 7 7 7 7 6 4 3 3 3 4 4 3 4 4 4 5 7 10 12 12 9
7 6 7 12 13 14 11 11 13 11 6 6 7 7 6 6 6 6 8 8 8 8 6 6 5 5 5 5 5 3 4 4 4 5 5 9 11 12
7 10 12 13 13 10 11 13 10 6 6 6 7 7 6 6 5 5 6 7 8 8 7 7 7 6 6 7 6 5 4 4 4 5 5 5 6 6
7 9 12 13 11 10 9 8 6 6 6 7 7 6 5 5 5 5 5 5 6 6 6 7 8 8 7 7 6 6 5 4 4 5 5 6 5 5
6 5 5 5 5 5 5 5 5 5 6 6 6 6 6 6 6 5 5 5 6 7 6 4 5 6 7 7 7 7 6 6 5 5 5 7 6 6
8 5 5 5 6 6 6 6 5 6 6 6 6 6 6 6 6 5 5 6 7 7 6 4 3 3 4 6 9 8 7 6 5 5 5 7 8 6
6 5 5 6 6 6 6 6 6 6 5 6 6 6 6 6 6 6 6 6 6 6 5 4 4 5 7 8 6 7 6 5 4 5 6 6 8 7
4 5 5 5 6 6 6 6 6 6 6 6 6 6 6 6 7 7 7 7 7 6 6 5 6 6 8 8 6 5 7 6 5 6 6 5 5 8
4 5 5 5 5 6 6 6 6 6 6 6 6 7 6 6 7 7 7 9 8 6 7 7 6 7 5 3 5 5 5 8 8 6 5 4 5 5
5 5 5 5 5 5 6 6 6 6 7 7 7 6 6 7 7 8 7 7 6 6 7 6 4 3 4 6 7 6 5 4 5 8 9 9 6 6
5 5 5 5 5 5 5 6 7 7 7 7 7 7 7 7 6 7 7 6 6 6 6 5 4 4 5 5 6 5 6 5 3 3 5 7 9 11
Wind_Direction
252 258 263 262 259 262 260 243 244 273 274 257 256 246 271 280 293 289 286 298 301 301 291 286 286 288 289 291 291 294 294 290 273 266 266 266 266 265
259 255 261 264 264 262 261 259 248 246 265 264 264 284 292 294 291 284 281 298 296 296 290 277 275 277 280 283 283 287 288 288 290 279 268 269 270 272
261 259 260 263 264 261 265 261 255 247 263 279 272 271 264 272 283 278 276 270 277 285 285 275 270 269 273 277 279 280 281 283 281 281 281 277 274 273
256 257 260 263 262 263 260 259 257 252 251 268 274 268 264 257 261 272 282 280 275 281 281 273 268 267 267 269 271 273 273 276 278 278 279 279 278 277
251 252 256 256 261 261 262 263 262 263 257 259 265 264 267 265 267 275 277 276 276 279 279 273 266 266 267 266 266 265 267 270 273 277 279 280 278 278
256 259 258 253 256 259 260 257 261 261 263 262 258 261 262 260 254 265 275 268 273 282 280 276 270 268 265 264 264 264 267 269 269 270 273 276 278 277
261 261 259 258 259 259 262 259 259 258 261 261 256 258 256 253 252 256 266 276 273 264 273 267 260 249 249 259 262 263 266 267 267 267 269 271 273 275
267 267 265 261 262 264 265 265 262 259 257 255 254 253 254 252 252 254 263 272 276 254 261 268 251 251 245 239 259 263 263 264 266 267 265 267 269 271
261 266 268 265 267 264 268 269 266 263 260 259 256 253 255 252 250 251 250 254 261 261 270 267 250 253 251 258 264 262 265 266 267 268 268 268 267 265
258 257 260 264 261 264 264 265 262 261 258 255 255 257 256 251 244 247 249 258 266 260 245 256 256 257 261 247 255 259 264 266 268 269 270 267 266 266
261 258 257 257 261 267 267 265 266 265 265 264 264 264 262 259 253 252 251 252 262 259 231 242 256 268 262 249 250 255 259 262 262 264 269 272 273 271
263 260 258 260 264 266 264 263 266 269 270 271 270 271 266 261 254 241 237 243 256 259 232 231 244 261 274 254 244 242 247 260 263 265 268 270 270 267
262 263 261 266 267 268 268 265 268 277 275 271 271 269 267 260 250 240 234 235 241 248 234 225 242 243 250 272 265 249 245 251 253 259 263 265 264 261
261 263 264 268 270 271 271 271 275 280 278 275 267 263 264 263 258 248 240 237 238 245 236 224 240 236 245 261 267 259 249 244 245 253 252 262 261 261
264 266 270 272 274 271 270 274 274 268 266 267 266 263 262 265 267 263 251 246 245 243 240 232 236 239 233 246 257 259 268 260 243 246 249 249 248 249
271 269 271 273 273 272 273 271 263 258 260 262 267 270 268 266 263 263 259 249 252 253 240 235 237 234 239 247 249 255 247 244 244 248 253 254 248 242
279 274 267 267 266 264 266 264 261 260 260 261 265 270 270 266 266 262 261 252 248 253 251 241 238 237 238 238 246 247 247 251 247 247 257 260 251 241
277 266 265 264 264 265 267 268 266 262 261 262 263 265 268 268 270 268 260 257 254 249 245 237 233 257 267 261 239 243 243 248 252 245 245 257 261 251
269 262 263 264 265 265 266 267 267 267 265 261 261 264 267 268 268 266 263 260 260 255 246 231 222 230 247 261 254 229 238 246 250 252 248 249 260 261
264 264 265 266 266 266 266 268 270 270 267 265 262 262 262 264 265 263 260 260 260 260 255 239 226 227 236 250 262 259 244 244 245 254 259 264 268 271
274 269 267 268 268 269 269 268 270 270 269 266 264 262 261 261 261 260 260 263 258 253 253 252 244 248 248 250 260 264 252 247 253 251 248 256 269 268
272 272 272 273 272 271 270 269 269 269 270 266 264 262 260 257 258 260 260 259 255 252 258 262 246 234 233 240 250 258 264 258 263 270 265 256 251 249
280 277 275 274 272 272 272 271 271 270 268 267 266 262 258 257 257 256 256 256 257 258 259 263 256 239 237 239 247 252 253 258 258 269 268 273 278 275